This is the latest recevied weather packets stored in our database for station/object WV5G-13. If no packets are shown the sender has not sent any weather packets the latest 10 day(s).
| Time | Temp. | Humidity | Pressure | Rain* | Wind** | Luminosity | Snow |
|---|---|---|---|---|---|---|---|
| 1778078248 | 7.22° C | 70% | 1013.3 hPa | 0 mm | - | 279 W/m² | - |
| 1778077946 | 7.22° C | 69% | 1013.3 hPa | 0 mm | - | 226 W/m² | - |
| 1778077644 | 7.78° C | 69% | 1013.2 hPa | 0 mm | - | 250 W/m² | - |
| 1778077342 | 7.78° C | 69% | 1013.5 hPa | 0 mm | - | 257 W/m² | - |
| 1778077040 | 7.22° C | 70% | 1013 hPa | 0 mm | - | 267 W/m² | - |
| 1778076738 | 7.78° C | 68% | 1013 hPa | 0 mm | - | 260 W/m² | - |
| 1778076435 | 7.22° C | 70% | 1012.9 hPa | 0 mm | - | 254 W/m² | - |
| 1778076132 | 7.22° C | 70% | 1012.8 hPa | 0 mm | - | 256 W/m² | - |
| 1778075829 | 7.22° C | 70% | 1013 hPa | 0 mm | - | 231 W/m² | - |
| 1778075525 | 6.67° C | 71% | 1013 hPa | 0 mm | - | 186 W/m² | - |
| 1778075222 | 6.67° C | 70% | 1013 hPa | 0 mm | - | 172 W/m² | - |
| 1778074918 | 6.67° C | 71% | 1013 hPa | 0 mm | - | 159 W/m² | - |
| 1778074616 | 6.67° C | 71% | 1013.2 hPa | 0 mm | - | 133 W/m² | - |
| 1778074312 | 6.11° C | 72% | 1013.2 hPa | 0 mm | - | 129 W/m² | - |
| 1778074009 | 6.11° C | 72% | 1013.3 hPa | 0 mm | - | 138 W/m² | - |
| 1778073706 | 6.11° C | 72% | 1013.5 hPa | 0 mm | - | 121 W/m² | - |
| 1778073404 | 6.11° C | 71% | 1013.6 hPa | 0 mm | - | 112 W/m² | - |
| 1778073100 | 6.11° C | 71% | 1013.9 hPa | 0 mm | - | 91 W/m² | - |
| 1778072797 | 6.11° C | 72% | 1013.8 hPa | 0 mm | - | 78 W/m² | - |
| 1778072494 | 6.11° C | 72% | 1013.8 hPa | 0 mm | - | 70 W/m² | - |
| 1778072192 | 6.11° C | 72% | 1013.6 hPa | 0 mm | - | 59 W/m² | - |
| 1778071889 | 6.11° C | 72% | 1013.6 hPa | 0 mm | - | 72 W/m² | - |
| 1778071587 | 5.56° C | 73% | 1013.3 hPa | 0 mm | - | 68 W/m² | - |
| 1778071285 | 5.56° C | 73% | 1013.5 hPa | 0 mm | - | 45 W/m² | - |
| 1778070982 | 5.56° C | 73% | 1013.9 hPa | 0 mm | - | 19 W/m² | - |
* Rain latest hour (hover to see other rain measurements)
** Current wind speed in m/s (hover to see current wind gust speed)